Year,Month,Day,Hour,Minute,Value (Times are PST for windgust in km/hr)
2014,10,22,00,00,40.20
2014,10,22,00,01,19.30
2014,10,22,00,02,32.20
2014,10,22,00,03,40.20
2014,10,22,00,04,33.80
2014,10,22,00,05,41.80
2014,10,22,00,06,35.40
2014,10,22,00,07,32.20
2014,10,22,00,08,33.80
2014,10,22,00,09,38.60
2014,10,22,00,10,45.10
2014,10,22,00,11,43.50
2014,10,22,00,12,16.10
2014,10,22,00,13,22.50
2014,10,22,00,14,32.20
2014,10,22,00,15,37.00
2014,10,22,00,16,27.40
2014,10,22,00,17,27.40
2014,10,22,00,18,32.20
2014,10,22,00,19,37.00
2014,10,22,00,20,29.00
2014,10,22,00,21,45.10
2014,10,22,00,22,45.10
2014,10,22,00,23,19.30
2014,10,22,00,24,27.40
2014,10,22,00,25,24.20
2014,10,22,00,26,29.00
2014,10,22,00,27,24.20
2014,10,22,00,28,27.40
2014,10,22,00,29,22.50
2014,10,22,00,30,20.90
2014,10,22,00,31,43.50
2014,10,22,00,32,27.40
2014,10,22,00,33,41.80
2014,10,22,00,34,25.70
2014,10,22,00,35,19.30
2014,10,22,00,36,32.20
2014,10,22,00,37,38.60
2014,10,22,00,38,30.60
2014,10,22,00,39,25.70
2014,10,22,00,40,43.50
2014,10,22,00,41,33.80
2014,10,22,00,42,38.60
2014,10,22,00,43,33.80
2014,10,22,00,44,37.00
2014,10,22,00,45,37.00
2014,10,22,00,46,33.80
2014,10,22,00,47,35.40
2014,10,22,00,48,59.50
2014,10,22,00,49,33.80
2014,10,22,00,50,27.40
2014,10,22,00,51,20.90
2014,10,22,00,52,29.00
2014,10,22,00,53,22.50
2014,10,22,00,54,41.80
2014,10,22,00,55,53.10
2014,10,22,00,56,30.60
2014,10,22,00,57,29.00
2014,10,22,00,58,43.50
2014,10,22,00,59,30.60
2014,10,22,01,00,64.40
2014,10,22,01,01,41.80
2014,10,22,01,02,19.30
2014,10,22,01,03,24.20
2014,10,22,01,04,45.10
2014,10,22,01,05,33.80
2014,10,22,01,06,37.00
2014,10,22,01,07,22.50
2014,10,22,01,08,35.40
2014,10,22,01,09,35.40
2014,10,22,01,10,32.20
2014,10,22,01,11,43.50
2014,10,22,01,12,25.70
2014,10,22,01,13,35.40
2014,10,22,01,14,30.60
2014,10,22,01,15,46.70
2014,10,22,01,16,38.60
2014,10,22,01,17,24.20
2014,10,22,01,18,35.40
2014,10,22,01,19,38.60
2014,10,22,01,20,32.20
2014,10,22,01,21,22.50
2014,10,22,01,22,29.00
2014,10,22,01,23,38.60
2014,10,22,01,24,29.00
2014,10,22,01,25,45.10
2014,10,22,01,26,30.60
2014,10,22,01,27,33.80
2014,10,22,01,28,30.60
2014,10,22,01,29,22.50
2014,10,22,01,30,35.40
2014,10,22,01,31,33.80
2014,10,22,01,32,24.20
2014,10,22,01,33,24.20
2014,10,22,01,34,40.20
2014,10,22,01,35,37.00
2014,10,22,01,36,29.00
2014,10,22,01,37,16.10
2014,10,22,01,38,29.00
2014,10,22,01,39,8.10
2014,10,22,01,40,33.80
2014,10,22,01,41,37.00
2014,10,22,01,42,14.50
2014,10,22,01,43,33.80
2014,10,22,01,44,27.40
2014,10,22,01,45,40.20
2014,10,22,01,46,24.20
2014,10,22,01,47,32.20
2014,10,22,01,48,38.60
2014,10,22,01,49,27.40
2014,10,22,01,50,45.10
2014,10,22,01,51,40.20
2014,10,22,01,52,17.70
2014,10,22,01,53,29.00
2014,10,22,01,54,24.20
2014,10,22,01,55,20.90
2014,10,22,01,56,16.10
2014,10,22,01,57,25.70
2014,10,22,01,58,40.20
2014,10,22,01,59,41.80
2014,10,22,02,00,22.50
2014,10,22,02,01,37.00
2014,10,22,02,02,17.70
2014,10,22,02,03,33.80
2014,10,22,02,04,19.30
2014,10,22,02,05,24.20
2014,10,22,02,06,33.80
2014,10,22,02,07,24.20
2014,10,22,02,08,53.10
2014,10,22,02,09,45.10
2014,10,22,02,10,35.40
2014,10,22,02,11,24.20
2014,10,22,02,12,27.40
2014,10,22,02,13,30.60
2014,10,22,02,14,37.00
2014,10,22,02,15,25.70
2014,10,22,02,16,27.40
2014,10,22,02,17,22.50
2014,10,22,02,18,27.40
2014,10,22,02,19,33.80
2014,10,22,02,20,33.80
2014,10,22,02,21,22.50
2014,10,22,02,22,29.00
2014,10,22,02,23,38.60
2014,10,22,02,24,20.90
2014,10,22,02,25,25.70
2014,10,22,02,26,14.50
2014,10,22,02,27,22.50
2014,10,22,02,28,38.60
2014,10,22,02,29,35.40
2014,10,22,02,30,19.30
2014,10,22,02,31,22.50
2014,10,22,02,32,38.60
2014,10,22,02,33,27.40
2014,10,22,02,34,25.70
2014,10,22,02,35,27.40
2014,10,22,02,36,24.20
2014,10,22,02,37,29.00
2014,10,22,02,38,29.00
2014,10,22,02,39,45.10
2014,10,22,02,40,25.70
2014,10,22,02,41,16.10
2014,10,22,02,42,20.90
2014,10,22,02,43,20.90
2014,10,22,02,44,35.40
2014,10,22,02,45,24.20
2014,10,22,02,46,14.50
2014,10,22,02,47,11.30
2014,10,22,02,48,37.00
2014,10,22,02,49,22.50
2014,10,22,02,50,20.90
2014,10,22,02,51,27.40
2014,10,22,02,52,20.90
2014,10,22,02,53,9.60
2014,10,22,02,54,22.50
2014,10,22,02,55,8.10
2014,10,22,02,56,17.70
2014,10,22,02,57,20.90
2014,10,22,02,58,16.10
2014,10,22,02,59,24.20
2014,10,22,03,00,24.20
2014,10,22,03,01,9.60
2014,10,22,03,02,16.10
2014,10,22,03,03,25.70
2014,10,22,03,04,30.60
2014,10,22,03,05,17.70
2014,10,22,03,06,22.50
2014,10,22,03,07,17.70
2014,10,22,03,08,19.30
2014,10,22,03,09,25.70
2014,10,22,03,10,19.30
2014,10,22,03,11,11.30
2014,10,22,03,12,27.40
2014,10,22,03,13,14.50
2014,10,22,03,14,25.70
2014,10,22,03,15,17.70
2014,10,22,03,16,19.30
2014,10,22,03,17,17.70
2014,10,22,03,18,17.70
2014,10,22,03,19,12.90
2014,10,22,03,20,17.70
2014,10,22,03,21,32.20
2014,10,22,03,22,30.60
2014,10,22,03,23,17.70
2014,10,22,03,24,33.80
2014,10,22,03,25,22.50
2014,10,22,03,26,20.90
2014,10,22,03,27,9.60
2014,10,22,03,28,25.70
2014,10,22,03,29,9.60
2014,10,22,03,30,24.20
2014,10,22,03,31,17.70
2014,10,22,03,32,14.50
2014,10,22,03,33,14.50
2014,10,22,03,34,25.70
2014,10,22,03,35,9.60
2014,10,22,03,36,16.10
2014,10,22,03,37,24.20
2014,10,22,03,38,22.50
2014,10,22,03,39,24.20
2014,10,22,03,40,8.10
2014,10,22,03,41,6.40
2014,10,22,03,42,25.70
2014,10,22,03,43,25.70
2014,10,22,03,44,19.30
2014,10,22,03,45,22.50
2014,10,22,03,46,24.20
2014,10,22,03,47,29.00
2014,10,22,03,48,19.30
2014,10,22,03,49,19.30
2014,10,22,03,50,20.90
2014,10,22,03,51,22.50
2014,10,22,03,52,14.50
2014,10,22,03,53,11.30
2014,10,22,03,54,30.60
2014,10,22,03,55,12.90
2014,10,22,03,56,20.90
2014,10,22,03,57,20.90
2014,10,22,03,58,14.50
2014,10,22,03,59,12.90
2014,10,22,04,00,24.20
2014,10,22,04,01,24.20
2014,10,22,04,02,14.50
2014,10,22,04,03,22.50
2014,10,22,04,04,25.70
2014,10,22,04,05,24.20
2014,10,22,04,06,19.30
2014,10,22,04,07,17.70
2014,10,22,04,08,14.50
2014,10,22,04,09,11.30
2014,10,22,04,10,22.50
2014,10,22,04,11,9.60
2014,10,22,04,12,8.10
2014,10,22,04,13,9.60
2014,10,22,04,14,24.20
2014,10,22,04,15,9.60
2014,10,22,04,16,16.10
2014,10,22,04,17,9.60
2014,10,22,04,18,14.50
2014,10,22,04,19,11.30
2014,10,22,04,20,9.60
2014,10,22,04,21,16.10
2014,10,22,04,22,6.40
2014,10,22,04,23,11.30
2014,10,22,04,24,9.60
2014,10,22,04,25,6.40
2014,10,22,04,26,6.40
2014,10,22,04,27,9.60
2014,10,22,04,28,16.10
2014,10,22,04,29,12.90
2014,10,22,04,30,12.90
2014,10,22,04,31,6.40
2014,10,22,04,32,4.80
2014,10,22,04,33,12.90
2014,10,22,04,34,19.30
2014,10,22,04,35,11.30
2014,10,22,04,36,9.60
2014,10,22,04,37,17.70
2014,10,22,04,38,17.70
2014,10,22,04,39,24.20
2014,10,22,04,40,19.30
2014,10,22,04,41,17.70
2014,10,22,04,42,14.50
2014,10,22,04,43,17.70
2014,10,22,04,44,9.60
2014,10,22,04,45,9.60
2014,10,22,04,46,11.30
2014,10,22,04,47,4.80
2014,10,22,04,48,8.10
2014,10,22,04,49,6.40
2014,10,22,04,50,9.60
2014,10,22,04,51,16.10
2014,10,22,04,52,16.10
2014,10,22,04,53,17.70
2014,10,22,04,54,12.90
2014,10,22,04,55,16.10
2014,10,22,04,56,6.40
2014,10,22,04,57,8.10
2014,10,22,04,58,8.10
2014,10,22,04,59,6.40
2014,10,22,05,00,9.60
2014,10,22,05,01,12.90
2014,10,22,05,02,6.40
2014,10,22,05,03,11.30
2014,10,22,05,04,8.10
2014,10,22,05,05,8.10
2014,10,22,05,06,6.40
2014,10,22,05,07,8.10
2014,10,22,05,08,6.40
2014,10,22,05,09,3.20
2014,10,22,05,11,4.80
2014,10,22,05,12,3.20
2014,10,22,05,13,3.20
2014,10,22,05,14,11.30
2014,10,22,05,15,9.60
2014,10,22,05,16,3.20
2014,10,22,05,17,4.80
2014,10,22,05,18,4.80
2014,10,22,05,19,4.80
2014,10,22,05,20,11.30
2014,10,22,05,21,3.20
2014,10,22,05,22,3.20
2014,10,22,05,23,3.20
2014,10,22,05,24,3.20
2014,10,22,05,25,1.60
2014,10,22,05,27,3.20
2014,10,22,05,28,4.80
2014,10,22,05,29,1.60
2014,10,22,05,31,3.20
2014,10,22,05,32,3.20
2014,10,22,05,33,3.20
2014,10,22,05,34,3.20
2014,10,22,05,35,4.80
2014,10,22,05,36,6.40
2014,10,22,05,37,6.40
2014,10,22,05,38,8.10
2014,10,22,05,39,11.30
2014,10,22,05,40,6.40
2014,10,22,05,41,4.80
2014,10,22,05,42,3.20
2014,10,22,05,44,3.20
2014,10,22,05,45,3.20
2014,10,22,05,46,4.80
2014,10,22,05,47,4.80
2014,10,22,05,48,1.60
2014,10,22,14,40,11.30
2014,10,22,14,41,6.40
2014,10,22,14,42,6.40
2014,10,22,14,43,12.90
2014,10,22,14,44,6.40
2014,10,22,14,45,11.30
2014,10,22,14,46,4.80
2014,10,22,14,47,4.80
2014,10,22,14,48,6.40
2014,10,22,14,49,12.90
2014,10,22,14,50,6.40
2014,10,22,14,51,8.10
2014,10,22,14,52,4.80
2014,10,22,14,53,8.10
2014,10,22,14,54,12.90
2014,10,22,14,55,4.80
2014,10,22,14,56,3.20
2014,10,22,14,57,3.20
2014,10,22,14,58,14.50
2014,10,22,14,59,12.90
2014,10,22,15,00,6.40
2014,10,22,15,01,16.10
2014,10,22,15,02,12.90
2014,10,22,15,03,14.50
2014,10,22,15,04,12.90
2014,10,22,15,05,9.60
2014,10,22,15,06,12.90
2014,10,22,15,07,9.60
2014,10,22,15,08,3.20
2014,10,22,15,09,6.40
2014,10,22,15,10,4.80
2014,10,22,15,11,9.60
2014,10,22,15,12,4.80
2014,10,22,15,13,3.20
2014,10,22,15,14,6.40
2014,10,22,15,15,6.40
2014,10,22,15,16,12.90
2014,10,22,15,17,6.40
2014,10,22,15,18,6.40
2014,10,22,15,19,16.10
2014,10,22,15,20,6.40
2014,10,22,15,21,6.40
2014,10,22,15,22,3.20
2014,10,22,15,23,9.60
2014,10,22,15,24,8.10
2014,10,22,15,25,4.80
2014,10,22,15,26,6.40
2014,10,22,15,27,4.80
2014,10,22,15,28,3.20
2014,10,22,15,29,11.30
2014,10,22,15,30,9.60
2014,10,22,15,31,11.30
2014,10,22,15,32,9.60
2014,10,22,15,33,9.60
2014,10,22,15,34,11.30
2014,10,22,15,35,11.30
2014,10,22,15,36,20.90
2014,10,22,15,37,16.10
2014,10,22,15,38,11.30
2014,10,22,15,39,11.30
2014,10,22,15,40,9.60
2014,10,22,15,41,4.80
2014,10,22,15,42,4.80
2014,10,22,15,43,8.10
2014,10,22,15,44,9.60
2014,10,22,15,45,12.90
2014,10,22,15,46,17.70
2014,10,22,15,47,19.30
2014,10,22,15,48,6.40
2014,10,22,15,49,8.10
2014,10,22,15,50,20.90
2014,10,22,15,51,11.30
2014,10,22,15,52,20.90
2014,10,22,15,53,12.90
2014,10,22,15,54,20.90
2014,10,22,15,55,14.50
2014,10,22,15,56,12.90
2014,10,22,15,57,11.30
2014,10,22,15,58,11.30
2014,10,22,15,59,6.40
2014,10,22,16,00,6.40
2014,10,22,16,01,11.30
2014,10,22,16,02,20.90
2014,10,22,16,03,17.70
2014,10,22,16,04,19.30
2014,10,22,16,05,14.50
2014,10,22,16,06,4.80
2014,10,22,16,07,17.70
2014,10,22,16,08,6.40
2014,10,22,16,09,12.90
2014,10,22,16,10,6.40
2014,10,22,16,11,4.80
2014,10,22,16,12,12.90
2014,10,22,16,13,16.10
2014,10,22,16,14,9.60
2014,10,22,16,15,17.70
2014,10,22,16,16,6.40
2014,10,22,16,17,6.40
2014,10,22,16,18,11.30
2014,10,22,16,19,14.50
2014,10,22,16,20,11.30
2014,10,22,16,21,12.90
2014,10,22,16,22,6.40
2014,10,22,16,23,11.30
2014,10,22,16,24,16.10
2014,10,22,16,25,14.50
2014,10,22,16,26,4.80
2014,10,22,16,27,3.20
2014,10,22,16,28,9.60
2014,10,22,16,29,11.30
2014,10,22,16,30,9.60
2014,10,22,16,31,6.40
2014,10,22,16,32,16.10
2014,10,22,16,33,11.30
2014,10,22,16,34,8.10
2014,10,22,16,35,11.30
2014,10,22,16,36,6.40
2014,10,22,16,37,11.30
2014,10,22,16,38,4.80
2014,10,22,16,39,12.90
2014,10,22,16,40,9.60
2014,10,22,16,41,11.30
2014,10,22,16,42,8.10
2014,10,22,16,43,9.60
2014,10,22,16,44,12.90
2014,10,22,16,45,4.80
2014,10,22,16,46,8.10
2014,10,22,16,47,16.10
2014,10,22,16,48,4.80
2014,10,22,16,49,6.40
2014,10,22,16,50,1.60
2014,10,22,16,51,4.80
2014,10,22,16,52,4.80
2014,10,22,16,53,12.90
2014,10,22,16,54,4.80
2014,10,22,16,55,6.40
2014,10,22,16,56,8.10
2014,10,22,16,57,4.80
2014,10,22,16,58,16.10
2014,10,22,16,59,20.90
2014,10,22,17,00,8.10
2014,10,22,17,01,19.30
2014,10,22,17,02,14.50
2014,10,22,17,03,14.50
2014,10,22,17,04,16.10
2014,10,22,17,05,14.50
2014,10,22,17,06,11.30
2014,10,22,17,07,6.40
2014,10,22,17,08,1.60
2014,10,22,17,09,6.40
2014,10,22,17,10,8.10
2014,10,22,17,11,12.90
2014,10,22,17,12,4.80
2014,10,22,17,13,4.80
2014,10,22,17,14,4.80
2014,10,22,17,15,6.40
2014,10,22,17,16,14.50
2014,10,22,17,17,16.10
2014,10,22,17,18,16.10
2014,10,22,17,19,14.50
2014,10,22,17,20,9.60
2014,10,22,17,21,9.60
2014,10,22,17,22,3.20
2014,10,22,17,23,6.40
2014,10,22,17,24,4.80
2014,10,22,17,25,12.90
2014,10,22,17,26,12.90
2014,10,22,17,27,4.80
2014,10,22,17,28,12.90
2014,10,22,17,29,11.30
2014,10,22,17,30,14.50
2014,10,22,17,31,11.30
2014,10,22,17,32,11.30
2014,10,22,17,33,9.60
2014,10,22,17,34,11.30
2014,10,22,17,35,14.50
2014,10,22,17,36,11.30
2014,10,22,17,37,17.70
2014,10,22,17,38,12.90
2014,10,22,17,39,6.40
2014,10,22,17,40,19.30
2014,10,22,17,41,8.10
2014,10,22,17,42,24.20
2014,10,22,17,43,4.80
2014,10,22,17,44,3.20
2014,10,22,17,45,12.90
2014,10,22,17,46,14.50
2014,10,22,17,47,6.40
2014,10,22,17,48,6.40
2014,10,22,17,49,14.50
2014,10,22,17,50,8.10
2014,10,22,17,51,11.30
2014,10,22,17,52,12.90
2014,10,22,17,53,11.30
2014,10,22,17,54,6.40
2014,10,22,17,55,6.40
2014,10,22,17,56,9.60
2014,10,22,17,57,22.50
2014,10,22,17,58,19.30
2014,10,22,17,59,11.30
2014,10,22,18,00,8.10
2014,10,22,18,01,12.90
2014,10,22,18,02,12.90
2014,10,22,18,03,11.30
2014,10,22,18,04,11.30
2014,10,22,18,05,12.90
2014,10,22,18,06,8.10
2014,10,22,18,07,16.10
2014,10,22,18,08,17.70
2014,10,22,18,09,8.10
2014,10,22,18,10,6.40
2014,10,22,18,11,6.40
2014,10,22,18,12,11.30
2014,10,22,18,13,12.90
2014,10,22,18,14,16.10
2014,10,22,18,15,14.50
2014,10,22,18,16,11.30
2014,10,22,18,17,16.10
2014,10,22,18,18,20.90
2014,10,22,18,19,12.90
2014,10,22,18,20,14.50
2014,10,22,18,21,11.30
2014,10,22,18,22,12.90
2014,10,22,18,23,6.40
2014,10,22,18,24,9.60
2014,10,22,18,25,11.30
2014,10,22,18,26,6.40
2014,10,22,18,27,9.60
2014,10,22,18,28,9.60
2014,10,22,18,29,4.80
2014,10,22,18,30,6.40
2014,10,22,18,31,12.90
2014,10,22,18,32,11.30
2014,10,22,18,33,6.40
2014,10,22,18,34,6.40
2014,10,22,18,35,12.90
2014,10,22,18,36,8.10
2014,10,22,18,37,4.80
2014,10,22,18,38,14.50
2014,10,22,18,39,6.40
2014,10,22,18,40,11.30
2014,10,22,18,41,11.30
2014,10,22,18,42,9.60
2014,10,22,18,43,8.10
2014,10,22,18,44,12.90
2014,10,22,18,45,12.90
2014,10,22,18,46,4.80
2014,10,22,18,47,12.90
2014,10,22,18,48,8.10
2014,10,22,18,49,11.30
2014,10,22,18,50,4.80
2014,10,22,18,51,6.40
2014,10,22,18,52,16.10
2014,10,22,18,53,8.10
2014,10,22,18,54,12.90
2014,10,22,18,55,8.10
2014,10,22,18,56,12.90
2014,10,22,18,57,12.90
2014,10,22,18,58,14.50
2014,10,22,18,59,17.70
2014,10,22,19,00,12.90
2014,10,22,19,01,8.10
2014,10,22,19,02,11.30
2014,10,22,19,03,12.90
2014,10,22,19,04,12.90
2014,10,22,19,05,14.50
2014,10,22,19,06,6.40
2014,10,22,19,07,6.40
2014,10,22,19,08,3.20
2014,10,22,19,09,4.80
2014,10,22,19,10,6.40
2014,10,22,19,11,11.30
2014,10,22,19,12,14.50
2014,10,22,19,13,6.40
2014,10,22,19,14,14.50
2014,10,22,19,15,8.10
2014,10,22,19,16,14.50
2014,10,22,19,17,6.40
2014,10,22,19,18,14.50
2014,10,22,19,19,8.10
2014,10,22,19,20,6.40
2014,10,22,19,21,16.10
2014,10,22,19,22,12.90
2014,10,22,19,23,6.40
2014,10,22,19,24,16.10
2014,10,22,19,25,11.30
2014,10,22,19,26,16.10
2014,10,22,19,27,9.60
2014,10,22,19,28,14.50
2014,10,22,19,29,3.20
2014,10,22,19,30,6.40
2014,10,22,19,31,11.30
2014,10,22,19,32,9.60
2014,10,22,19,33,4.80
2014,10,22,19,34,4.80
2014,10,22,19,35,8.10
2014,10,22,19,36,6.40
2014,10,22,19,37,12.90
2014,10,22,19,38,9.60
2014,10,22,19,39,6.40
2014,10,22,19,40,8.10
2014,10,22,19,41,8.10
2014,10,22,19,42,9.60
2014,10,22,19,43,3.20
2014,10,22,19,44,11.30
2014,10,22,19,45,14.50
2014,10,22,19,46,9.60
2014,10,22,19,47,8.10
2014,10,22,19,48,14.50
2014,10,22,19,49,9.60
2014,10,22,19,50,12.90
2014,10,22,19,51,11.30
2014,10,22,19,52,4.80
2014,10,22,19,53,16.10
2014,10,22,19,54,4.80
2014,10,22,19,55,3.20
2014,10,22,19,56,11.30
2014,10,22,19,57,11.30
2014,10,22,19,58,8.10
2014,10,22,19,59,6.40
2014,10,22,20,00,6.40
2014,10,22,20,01,11.30
2014,10,22,20,02,4.80
2014,10,22,20,03,14.50
2014,10,22,20,04,8.10
2014,10,22,20,05,6.40
2014,10,22,20,06,3.20
2014,10,22,20,07,6.40
2014,10,22,20,08,6.40
2014,10,22,20,09,6.40
2014,10,22,20,10,3.20
2014,10,22,20,11,3.20
2014,10,22,20,12,3.20
2014,10,22,20,13,12.90
2014,10,22,20,14,8.10
2014,10,22,20,15,6.40
2014,10,22,20,16,8.10
2014,10,22,20,17,11.30
2014,10,22,20,18,12.90
2014,10,22,20,19,6.40
2014,10,22,20,20,6.40
2014,10,22,20,21,3.20
2014,10,22,20,22,11.30
2014,10,22,20,23,4.80
2014,10,22,20,24,6.40
2014,10,22,20,25,12.90
2014,10,22,20,26,16.10
2014,10,22,20,27,6.40
2014,10,22,20,28,6.40
2014,10,22,20,29,8.10
2014,10,22,20,30,6.40
2014,10,22,20,31,9.60
2014,10,22,20,32,6.40
2014,10,22,20,33,12.90
2014,10,22,20,34,11.30
2014,10,22,20,35,8.10
2014,10,22,20,36,6.40
2014,10,22,20,37,8.10
2014,10,22,20,38,6.40
2014,10,22,20,39,8.10
2014,10,22,20,40,8.10
2014,10,22,20,41,4.80
2014,10,22,20,42,6.40
2014,10,22,20,43,6.40
2014,10,22,20,44,6.40
2014,10,22,20,45,4.80
2014,10,22,20,46,9.60
2014,10,22,20,47,9.60
2014,10,22,20,48,6.40
2014,10,22,20,49,4.80
2014,10,22,20,50,3.20
2014,10,22,20,51,6.40
2014,10,22,20,52,6.40
2014,10,22,20,53,4.80
2014,10,22,20,54,6.40
2014,10,22,20,55,6.40
2014,10,22,20,56,3.20
2014,10,22,20,57,1.60
2014,10,22,20,58,3.20
2014,10,22,20,59,6.40
2014,10,22,21,00,3.20
2014,10,22,21,01,3.20
2014,10,22,21,02,4.80
2014,10,22,21,03,3.20
2014,10,22,21,04,1.60
2014,10,22,21,05,1.60
2014,10,22,21,06,1.60
2014,10,22,21,07,6.40
2014,10,22,21,08,3.20
2014,10,22,21,09,3.20
2014,10,22,21,10,3.20
2014,10,22,21,11,3.20
2014,10,22,21,12,3.20
2014,10,22,21,13,1.60
2014,10,22,21,14,1.60
2014,10,22,21,15,1.60
2014,10,22,21,16,1.60
2014,10,22,21,17,1.60
2014,10,22,21,18,1.60
2014,10,22,21,19,3.20
2014,10,22,21,20,3.20
2014,10,22,21,21,1.60
2014,10,22,21,24,4.80
2014,10,22,21,25,1.60
2014,10,22,21,28,3.20
2014,10,22,21,29,3.20
2014,10,22,21,30,6.40
2014,10,22,21,31,3.20
2014,10,22,21,32,6.40
2014,10,22,21,33,6.40
2014,10,22,21,34,8.10
2014,10,22,21,35,8.10
2014,10,22,21,36,4.80
2014,10,22,21,37,3.20
2014,10,22,21,38,3.20
2014,10,22,21,39,6.40
2014,10,22,21,40,3.20
2014,10,22,21,41,3.20
2014,10,22,21,42,1.60
2014,10,22,21,43,3.20
2014,10,22,21,44,3.20
2014,10,22,21,45,6.40
2014,10,22,21,46,4.80
2014,10,22,21,47,3.20
2014,10,22,21,48,1.60
2014,10,22,21,49,1.60
2014,10,22,21,50,4.80
2014,10,22,21,51,4.80
2014,10,22,21,52,3.20
2014,10,22,21,53,3.20
2014,10,22,21,54,3.20
2014,10,22,21,55,3.20
2014,10,22,21,56,3.20
2014,10,22,21,57,3.20
2014,10,22,21,58,3.20
2014,10,22,21,59,6.40
2014,10,22,22,00,4.80
2014,10,22,22,01,4.80
2014,10,22,22,02,4.80
2014,10,22,22,03,3.20
2014,10,22,22,04,3.20
2014,10,22,22,05,6.40
2014,10,22,22,06,6.40
2014,10,22,22,07,1.60
2014,10,22,22,10,8.10
2014,10,22,22,11,3.20
2014,10,22,22,12,1.60
2014,10,22,22,13,3.20
2014,10,22,22,14,3.20
2014,10,22,22,15,4.80
2014,10,22,22,16,3.20
2014,10,22,22,17,3.20
2014,10,22,22,18,3.20
2014,10,22,22,19,1.60
2014,10,22,22,20,3.20
2014,10,22,22,21,3.20
2014,10,22,22,22,4.80
2014,10,22,22,23,3.20
2014,10,22,22,24,3.20
2014,10,22,22,25,4.80
2014,10,22,22,26,4.80
2014,10,22,22,27,3.20
2014,10,22,22,28,1.60
2014,10,22,22,29,1.60
2014,10,22,22,30,6.40
2014,10,22,22,31,3.20
2014,10,22,22,32,3.20
2014,10,22,22,33,3.20
2014,10,22,22,34,3.20
2014,10,22,22,35,3.20
2014,10,22,22,36,4.80
2014,10,22,22,37,4.80
2014,10,22,22,38,3.20
2014,10,22,22,39,4.80
2014,10,22,22,40,3.20
2014,10,22,22,41,1.60
2014,10,22,22,42,1.60
2014,10,22,22,43,1.60
2014,10,22,22,44,1.60
2014,10,22,22,45,1.60
2014,10,22,22,46,1.60
2014,10,22,22,47,3.20
2014,10,22,22,48,3.20
2014,10,22,22,49,3.20
2014,10,22,22,50,1.60
2014,10,22,22,51,4.80
2014,10,22,22,52,8.10
2014,10,22,22,53,3.20
2014,10,22,22,54,3.20
2014,10,22,22,55,4.80
2014,10,22,22,56,6.40
2014,10,22,22,57,1.60
2014,10,22,22,58,1.60
2014,10,22,22,59,3.20
2014,10,22,23,00,1.60
2014,10,22,23,02,1.60
2014,10,22,23,03,1.60
2014,10,22,23,04,1.60
2014,10,22,23,05,1.60
2014,10,22,23,06,3.20
2014,10,22,23,07,6.40
2014,10,22,23,08,4.80
2014,10,22,23,09,3.20
2014,10,22,23,10,3.20
2014,10,22,23,11,3.20
2014,10,22,23,12,3.20
2014,10,22,23,13,1.60
2014,10,22,23,14,1.60
2014,10,22,23,15,1.60
2014,10,22,23,16,1.60
2014,10,22,23,17,4.80
2014,10,22,23,18,3.20
2014,10,22,23,19,3.20
2014,10,22,23,20,1.60
2014,10,22,23,58,1.60
2014,10,22,23,59,3.20
